Regional Weather Roundup
Issued by NWS

Home | Current Version | Previous Version | Text Only | Print | Product List | Glossary Off
Versions: 1 2 3 4 5 6 7 8 9 10 11 12 13 14 15 16 17 18 19 20 21 22 23 24 25 26 27 28 29 30 31 32 33 34 35 36 37 38 39 40 41 42 43 44 45 46 47 48 49 50

000
ASUS43 KFSD 261702
RWRSD

WEATHER ROUNDUP FOR SOUTH DAKOTA
NATIONAL WEATHER SERVICE SIOUX FALLS SD
1200 PM CDT SAT MAY 26 2018

NOTE: "FAIR" INDICATES FEW OR NO CLOUDS BELOW 12,000 FEET WITH NO
SIGNIFICANT WEATHER AND/OR OBSTRUCTIONS TO VISIBILITY.


SDZ001>005-009-010-012>017-261800-
NORTHWEST AND NORTH CENTRAL SOUTH DAKOTA

CITY           SKY/WX    TMP DP  RH WIND       PRES   REMARKS
BUFFALO          N/A     84  56  38 SE13      29.74F
FAITH            N/A     80  63  55 S13       29.80F
MOBRIDGE       SUNNY     82  60  47 CALM      29.77F
$$

SDZ012>016-024>037-041>051-057-063-072>074-261800-
SOUTHWEST AND SOUTH CENTRAL SOUTH DAKOTA

CITY           SKY/WX    TMP DP  RH WIND       PRES   REMARKS
RAPID CTY ARPT SUNNY     79  61  53 S13       29.81F
PIERRE         SUNNY     85  60  42 E6        29.77F
CUSTER         SUNNY     75  46  35 S7        29.96F
ELLSWORTH AFB  SUNNY     80  63  55 S15       29.81F
PHILIP         SUNNY     83  67  58 E6        29.78F
PINE RIDGE     SUNNY     87  56  34 S10G18    29.83F
SPEARFISH      LGT RAIN  84  52  32 SE12G17   29.82F
WINNER         FAIR      87  66  49 S8        29.81F
$$

SDZ004>011-016>023-039-040-261800-
NORTHEAST SOUTH DAKOTA

CITY           SKY/WX    TMP DP  RH WIND       PRES   REMARKS
ABERDEEN       SUNNY     92  53  26 W7        29.76F
WATERTOWN      SUNNY     85  53  33 NW5       29.79S
BROOKINGS      SUNNY     87  55  33 W16       29.79F
SISSETON         N/A     91  51  25 NW8       29.73S
$$

SDZ017-020-022-023-036>040-048>070-261800-
SOUTHEAST SOUTH DAKOTA

CITY           SKY/WX    TMP DP  RH WIND       PRES   REMARKS
SIOUX FALLS    SUNNY     87  59  38 W10G17    29.79F
HURON          SUNNY     87  58  37 SW7       29.78S
CHAMBERLAIN    SUNNY     87  65  47 S6        29.79F
MITCHELL       SUNNY     88  59  37 W5        29.79F
YANKTON        SUNNY     89  55  31 CALM      29.80F
$$

ABBREVIATIONS USED IN REMARKS
   TC - TEMPERATURE IN CELSIUS
  WCI - WIND CHILL INDEX
   HX - HEAT INDEX
  VSB - VISIBILITY





USA.gov is the U.S. government's official web portal to all federal, state and local government web resources and services.